Regional Weather Roundup
Issued by NWS State College, PA

Home | Current Version | Previous Version | Text Only | Print | Product List | Glossary Off
Versions: 1 2 3 4 5 6 7 8 9 10 11 12 13 14 15 16 17 18 19 20 21 22 23 24 25 26 27 28 29 30 31 32 33 34 35 36 37 38 39 40 41 42 43 44 45 46 47 48 49 50

000
ASUS41 KCTP 040503
RWRCTP

REGIONAL WEATHER ROUNDUP
NATIONAL WEATHER SERVICE STATE COLLEGE PA
100 AM EDT TUE AUG 04 2015

Note: "fair" indicates few or no clouds below 12,000 feet with no
significant weather and/or obstructions to visibility.

* = STATION THAT DOES NOT REPORT PRECIPITATION /E.G. RAIN...SNOW...ETC/
    THUNDER OR FOG.

PAZ002>004-007>009-013>016-020>023-029>032-040600-
WESTERN PENNSYLVANIA

CITY           SKY/WX    TMP DP  RH WIND       PRES   REMARKS
ERIE           PTCLDY    67  61  81 SW3       29.84R
MEADVILLE      PTCLDY    67  59  75 SW3       29.86F
FRANKLIN*      CLEAR     63  57  82 CALM      29.88S
NEW CASTLE     FAIR      65  64  96 CALM      29.88R
BEAVER COUNTY  NOT AVBL
BUTLER*        PTCLDY    63  63 100 CALM      29.89R
PITTSBURGH INT CLOUDY    67  64  90 CALM      29.88R
PITTSBURGH     CLOUDY    68  63  84 SW10      29.88R
INDIANA*       PTCLDY    66  64  94 CALM      29.91
LATROBE        NOT AVBL
WASHINGTON CO* NOT AVBL
$$

PAZ004>006-010>012-017>019-024>028-033>037-041-042-045-046-049>053-040600-
CENTRAL PENNSYLVANIA

CITY           SKY/WX    TMP DP  RH WIND       PRES   REMARKS
BRADFORD       HVY RAIN  61  58  90 VRB5      29.88R FOG
DUBOIS         CLOUDY    66  62  87 S5        29.87R FOG
CLEARFIELD     CLOUDY    66  62  87 S8        29.88S
JOHNSTOWN      LGT RAIN  63  60  90 S5        29.93R
ALTOONA        TSTM      65  58  78 SW10      29.92R
STATE COLLEGE  CLOUDY    65  62  89 S3        29.87S
WILLIAMSPORT   CLOUDY    71  63  75 CALM      29.81S
SELINSGROVE    LGT RAIN  69  67  93 CALM      29.84R
FT INDIANTOWN  MOCLDY    69  67  94 N2        29.82F THUNDER
CAPITAL CITY   MOCLDY    76  64  66 W6        29.82R
HARRISBURG     MOCLDY    76  68  76 CALM      29.82R
YORK           MOCLDY    72  65  78 S5        29.83S
$$

PAZ038>040-043-044-047-048-054-055-060>062-067>071-040600-
EASTERN PENNSYLVANIA

CITY           SKY/WX    TMP DP  RH WIND       PRES   REMARKS
SCRANTON       MOCLDY    70  67  90 CALM      29.83R
MOUNT POCONO   MOCLDY    66  62  87 NW3       29.88F
ALLENTOWN      PTCLDY    71  67  87 CALM      29.82S
QUAKERTOWN*    PTCLDY    73  66  78 CALM      29.84S
READING        CLOUDY    75  63  66 S7        29.83R
LANCASTER      LGT RAIN  70  67  90 SE8       29.84R
COATESVILLE    LGT RAIN  70  68  94 NW9       29.86R
POTTSTOWN      TSTM      72  66  81 SW16G26   29.88R
BLUE BELL      CLEAR     79  70  73 W3        29.83R
DOYLESTOWN     CLEAR     75  66  73 S3        29.82R
WILLOW GROVE   NOT AVBL
NORTH PHILA    CLEAR     81  68  64 S7        29.83S
PHILADELPHIA   PTCLDY    80  71  74 SW9       29.83R
$$


USA.gov is the U.S. government's official web portal to all federal, state and local government web resources and services.